When you browse on this site, cookies collect data to enhance your experience and personalize the content and advertising you see.
Visit our Privacy Policy to learn more. By continuing to use the site, you agree to this use of cookies and data.
  • en France
  • Liste des pays
  • À 7 jours
  • Température de l'eau
  • Carte météo
  • Widgets météo
  • user-avatar
    Se connecter

    Météo par heure à Namibe

    Ce jour, 7 Juin, Dimanche

    Heure Température Précipitation Vent Pression Humidité
    00:00 +24°C° 0 mm 2 m/s 759 mmHg 55%
    01:00 +24°C° 0 mm 2 m/s 759 mmHg 53%
    02:00 +24°C° 0 mm 2 m/s 759 mmHg 51%
    03:00 +24°C° 0 mm 3 m/s 759 mmHg 50%
    04:00 +24°C° 0 mm 3 m/s 758 mmHg 49%
    05:00 +24°C° 0 mm 3 m/s 758 mmHg 47%
    06:00 +25°C° 0 mm 3 m/s 759 mmHg 44%
    07:00 +25°C° 0 mm 3 m/s 759 mmHg 42%
    08:00 +28°C° 0 mm 3 m/s 759 mmHg 36%
    09:00 +30°C° 0 mm 3 m/s 759 mmHg 29%
    10:00 +34°C° 0 mm 3 m/s 759 mmHg 23%
    11:00 +34°C° 0 mm 3 m/s 758 mmHg 23%
    12:00 +35°C° 0 mm 4 m/s 758 mmHg 24%
    13:00 +36°C° 0 mm 4 m/s 757 mmHg 25%
    14:00 +34°C° 0 mm 4 m/s 757 mmHg 30%
    15:00 +33°C° 0 mm 4 m/s 757 mmHg 35%
    16:00 +30°C° 0 mm 4 m/s 756 mmHg 40%
    17:00 +28°C° 0 mm 3 m/s 757 mmHg 48%
    18:00 +27°C° 0 mm 2 m/s 757 mmHg 55%
    19:00 +25°C° 0 mm 1 m/s 758 mmHg 63%
    20:00 +25°C° 0 mm 2 m/s 758 mmHg 61%
    21:00 +25°C° 0 mm 2 m/s 758 mmHg 59%
    22:00 +25°C° 0 mm 2 m/s 758 mmHg 58%
    23:00 +24°C° 0 mm 2 m/s 758 mmHg 56%

    Demain, 8 Juin, Lundi

    Heure Température Précipitation Vent Pression Humidité
    00:00 +24°C° 0 mm 2 m/s 758 mmHg 54%
    01:00 +24°C° 0 mm 2 m/s 758 mmHg 53%
    02:00 +24°C° 0 mm 2 m/s 758 mmHg 53%
    03:00 +23°C° 0 mm 2 m/s 758 mmHg 54%
    04:00 +22°C° 0 mm 3 m/s 758 mmHg 54%
    05:00 +23°C° 0 mm 2 m/s 758 mmHg 53%
    06:00 +23°C° 0 mm 2 m/s 758 mmHg 52%
    07:00 +23°C° 0 mm 2 m/s 758 mmHg 51%
    08:00 +26°C° 0 mm 2 m/s 758 mmHg 44%
    09:00 +28°C° 0 mm 2 m/s 758 mmHg 38%
    10:00 +31°C° 0 mm 2 m/s 758 mmHg 31%
    11:00 +33°C° 0 mm 3 m/s 758 mmHg 30%
    12:00 +34°C° 0 mm 3 m/s 757 mmHg 29%
    13:00 +34°C° 0 mm 4 m/s 757 mmHg 29%
    14:00 +33°C° 0 mm 4 m/s 757 mmHg 33%
    15:00 +32°C° 0 mm 4 m/s 756 mmHg 36%
    16:00 +30°C° 0 mm 4 m/s 756 mmHg 40%
    17:00 +28°C° 0 mm 4 m/s 757 mmHg 49%
    18:00 +26°C° 0 mm 4 m/s 757 mmHg 57%
    19:00 +23°C° 0 mm 4 m/s 758 mmHg 66%
    20:00 +23°C° 0 mm 4 m/s 758 mmHg 67%
    21:00 +22°C° 0 mm 4 m/s 759 mmHg 67%
    22:00 +22°C° 0 mm 3 m/s 759 mmHg 68%
    23:00 +22°C° 0 mm 3 m/s 759 mmHg 66%

    Après-demain, 9 Juin, Mardi

    Heure Température Précipitation Vent Pression Humidité
    00:00 +21°C° 0 mm 3 m/s 759 mmHg 65%
    01:00 +21°C° 0 mm 3 m/s 759 mmHg 63%
    02:00 +21°C° 0 mm 3 m/s 759 mmHg 62%
    03:00 +21°C° 0 mm 3 m/s 759 mmHg 61%
    04:00 +21°C° 0 mm 3 m/s 759 mmHg 60%
    05:00 +21°C° 0 mm 3 m/s 759 mmHg 60%
    06:00 +21°C° 0 mm 3 m/s 759 mmHg 59%
    07:00 +20°C° 0 mm 3 m/s 759 mmHg 59%
    08:00 +23°C° 0 mm 4 m/s 760 mmHg 51%
    09:00 +26°C° 0 mm 4 m/s 760 mmHg 43%
    10:00 +29°C° 0 mm 4 m/s 760 mmHg 35%
    11:00 +30°C° 0 mm 4 m/s 759 mmHg 33%
    12:00 +33°C° 0 mm 5 m/s 759 mmHg 30%
    13:00 +34°C° 0 mm 5 m/s 758 mmHg 27%
    14:00 +32°C° 0 mm 6 m/s 758 mmHg 36%
    15:00 +30°C° 0 mm 6 m/s 758 mmHg 44%
    16:00 +28°C° 0 mm 7 m/s 758 mmHg 52%
    17:00 +26°C° 0 mm 6 m/s 758 mmHg 58%
    18:00 +24°C° 0 mm 6 m/s 759 mmHg 64%
    19:00 +22°C° 0 mm 5 m/s 759 mmHg 70%
    20:00 +22°C° 0 mm 5 m/s 760 mmHg 72%
    21:00 +21°C° 0 mm 4 m/s 760 mmHg 74%
    22:00 +20°C° 0 mm 4 m/s 760 mmHg 76%
    23:00 +20°C° 0 mm 4 m/s 760 mmHg 74%

    10 Juin, Mercredi

    Heure Température Précipitation Vent Pression Humidité
    00:00 +20°C° 0 mm 4 m/s 760 mmHg 72%
    01:00 +20°C° 0 mm 4 m/s 760 mmHg 70%
    02:00 +20°C° 0 mm 4 m/s 760 mmHg 71%
    03:00 +19°C° 0 mm 4 m/s 760 mmHg 73%
    04:00 +19°C° 0 mm 4 m/s 759 mmHg 75%
    05:00 +19°C° 0 mm 4 m/s 760 mmHg 75%
    06:00 +19°C° 0 mm 4 m/s 760 mmHg 76%
    07:00 +18°C° 0 mm 4 m/s 760 mmHg 76%
    08:00 +21°C° 0 mm 4 m/s 760 mmHg 63%
    09:00 +25°C° 0 mm 4 m/s 760 mmHg 51%
    10:00 +27°C° 0 mm 4 m/s 760 mmHg 38%
    11:00 +29°C° 0 mm 5 m/s 760 mmHg 36%
    12:00 +30°C° 0 mm 6 m/s 759 mmHg 33%
    13:00 +32°C° 0 mm 7 m/s 759 mmHg 31%
    14:00 +30°C° 0 mm 7 m/s 758 mmHg 36%
    15:00 +29°C° 0 mm 7 m/s 758 mmHg 42%
    16:00 +27°C° 0 mm 8 m/s 758 mmHg 48%
    17:00 +24°C° 0 mm 7 m/s 758 mmHg 56%
    18:00 +23°C° 0 mm 6 m/s 758 mmHg 64%
    19:00 +21°C° 0 mm 6 m/s 759 mmHg 72%
    20:00 +20°C° 0 mm 5 m/s 759 mmHg 73%
    21:00 +19°C° 0 mm 4 m/s 759 mmHg 75%
    22:00 +19°C° 0 mm 4 m/s 759 mmHg 76%
    23:00 +18°C° 0 mm 4 m/s 759 mmHg 76%

    11 Juin, Jeudi

    Heure Température Précipitation Vent Pression Humidité
    00:00 +18°C° 0 mm 3 m/s 759 mmHg 76%
    01:00 +18°C° 0 mm 3 m/s 759 mmHg 75%
    02:00 +18°C° 0 mm 3 m/s 759 mmHg 76%
    03:00 +17°C° 0 mm 3 m/s 758 mmHg 77%
    04:00 +17°C° 0 mm 3 m/s 758 mmHg 78%
    05:00 +17°C° 0 mm 3 m/s 758 mmHg 77%
    06:00 +17°C° 0 mm 2 m/s 759 mmHg 76%
    07:00 +17°C° 0 mm 2 m/s 759 mmHg 75%
    08:00 +20°C° 0 mm 2 m/s 759 mmHg 64%
    09:00 +24°C° 0 mm 2 m/s 759 mmHg 53%
    10:00 +27°C° 0 mm 2 m/s 760 mmHg 42%
    11:00 +27°C° 0 mm 2 m/s 759 mmHg 42%
    12:00 +28°C° 0 mm 3 m/s 759 mmHg 41%
    13:00 +29°C° 0 mm 4 m/s 758 mmHg 41%
    14:00 +28°C° 0 mm 4 m/s 758 mmHg 44%
    15:00 +27°C° 0 mm 5 m/s 757 mmHg 46%
    16:00 +27°C° 0 mm 5 m/s 757 mmHg 48%
    17:00 +25°C° 0 mm 5 m/s 758 mmHg 55%
    18:00 +22°C° 0 mm 5 m/s 758 mmHg 62%
    19:00 +21°C° 0 mm 5 m/s 759 mmHg 69%
    20:00 +20°C° 0 mm 4 m/s 759 mmHg 69%
    21:00 +20°C° 0 mm 3 m/s 759 mmHg 69%
    22:00 +19°C° 0 mm 2 m/s 759 mmHg 68%
    23:00 +19°C° 0 mm 3 m/s 759 mmHg 69%

    12 Juin, Vendredi

    Heure Température Précipitation Vent Pression Humidité
    00:00 +19°C° 0 mm 3 m/s 759 mmHg 69%
    01:00 +18°C° 0 mm 4 m/s 759 mmHg 70%
    02:00 +18°C° 0 mm 3 m/s 759 mmHg 73%
    03:00 +17°C° 0 mm 3 m/s 759 mmHg 77%
    04:00 +17°C° 0 mm 3 m/s 758 mmHg 81%
    05:00 +17°C° 0 mm 2 m/s 758 mmHg 81%
    06:00 +17°C° 0 mm 2 m/s 759 mmHg 81%
    07:00 +18°C° 0 mm 1 m/s 759 mmHg 81%
    08:00 +20°C° 0 mm 1 m/s 759 mmHg 70%
    09:00 +23°C° 0 mm 1 m/s 759 mmHg 58%
    10:00 +26°C° 0 mm 1 m/s 759 mmHg 47%
    11:00 +27°C° 0 mm 2 m/s 759 mmHg 45%
    12:00 +28°C° 0 mm 3 m/s 758 mmHg 44%
    13:00 +28°C° 0 mm 4 m/s 758 mmHg 43%
    14:00 +28°C° 0 mm 4 m/s 757 mmHg 45%
    15:00 +27°C° 0 mm 4 m/s 757 mmHg 48%
    16:00 +26°C° 0 mm 4 m/s 757 mmHg 51%
    17:00 +24°C° 0 mm 3 m/s 757 mmHg 58%
    18:00 +22°C° 0 mm 3 m/s 758 mmHg 66%
    19:00 +20°C° 0 mm 2 m/s 758 mmHg 73%
    20:00 +20°C° 0 mm 2 m/s 758 mmHg 74%
    21:00 +20°C° 0 mm 2 m/s 759 mmHg 74%
    22:00 +20°C° 0 mm 1 m/s 759 mmHg 75%
    23:00 +19°C° 0 mm 2 m/s 759 mmHg 72%
    Voir plus